This demonstration page uses our WeatherBlox Daily Observations layout. Learn more.

Left ArrowRight Arrow

Hourly Observations for November 20, 2020

Temp ( °F °C ) Dew Point ( °F °C ) Humidity (%) Winds ( mph kmh ) Pressure ( in mb ) Visibility ( mi km ) Precip ( " mm )
12:15 am 00:15 Clear 55 13 34 1 44 44 SSW 13 20 30.21 1023 10 16 N/A
12:35 am 00:35 Clear 55 13 34 1 44 44 S 9 15 30.21 1023 10 16 N/A
12:55 am 00:55 Clear 54 12 34 1 47 47 S 10 17 30.21 1023 10 16 N/A
1:15 am 01:15 Clear 52 11 34 1 50 50 S 8 13 30.23 1024 10 16 N/A
1:35 am 01:35 Clear 52 11 34 1 50 50 S 9 15 30.23 1024 10 16 N/A
1:55 am 01:55 Clear 50 10 34 1 54 54 S 8 13 30.24 1024 10 16 N/A
2:15 am 02:15 Clear 50 10 34 1 54 54 S 9 15 30.24 1024 10 16 N/A
2:35 am 02:35 Clear 54 12 34 1 47 47 SSW 20 31 30.23 1024 10 16 N/A
2:55 am 02:55 Clear 55 13 34 1 44 44 SSW 17 28 30.23 1024 10 16 N/A
3:15 am 03:15 Clear 55 13 34 1 44 44 SSW 16 26 30.23 1024 10 16 N/A
3:35 am 03:35 Clear 55 13 34 1 44 44 SSW 16 26 30.23 1024 10 16 N/A
3:55 am 03:55 Clear 55 13 34 1 44 44 SSW 17 28 30.23 1024 10 16 N/A
4:15 am 04:15 Clear 54 12 34 1 47 47 SSW 14 22 30.24 1024 10 16 N/A
4:35 am 04:35 Clear 54 12 34 1 47 47 SSW 17 28 30.24 1024 10 16 N/A
4:55 am 04:55 Clear 54 12 34 1 47 47 SSW 15 24 30.24 1024 10 16 N/A
5:15 am 05:15 Mostly Cloudy 54 12 34 1 47 47 SSW 15 24 30.24 1024 10 16 N/A
5:35 am 05:35 Cloudy 54 12 36 2 51 51 SSW 14 22 30.25 1025 10 16 N/A
5:55 am 05:55 Cloudy 55 13 36 2 47 47 SSW 15 24 30.25 1024 10 16 N/A
6:15 am 06:15 Cloudy 54 12 36 2 51 51 SSW 16 26 30.25 1025 10 16 N/A
6:35 am 06:35 Cloudy 55 13 36 2 47 47 SSW 16 26 30.25 1024 10 16 N/A
6:55 am 06:55 Cloudy 55 13 36 2 47 47 SSW 14 22 30.26 1025 10 16 N/A
7:15 am 07:15 Cloudy 55 13 37 3 51 51 SSW 15 24 30.27 1025 10 16 N/A
7:35 am 07:35 Cloudy 55 13 37 3 51 51 SSW 15 24 30.27 1025 10 16 N/A
7:55 am 07:55 Cloudy 55 13 37 3 51 51 SSW 14 22 30.28 1025 10 16 N/A
8:15 am 08:15 Cloudy 55 13 39 4 55 55 SSW 15 24 30.28 1025 10 16 N/A
8:35 am 08:35 Cloudy 55 13 39 4 55 55 SSW 14 22 30.29 1026 10 16 N/A
8:55 am 08:55 Cloudy 55 13 39 4 55 55 SSW 14 22 30.29 1026 10 16 N/A
9:15 am 09:15 Cloudy 55 13 39 4 55 55 SSW 18 30 30.31 1026 10 16 N/A
9:35 am 09:35 Cloudy 55 13 41 5 59 59 SSW 18 30 30.31 1026 10 16 N/A
9:55 am 09:55 Cloudy 55 13 41 5 59 59 SSW 16 26 30.32 1027 10 16 N/A
10:15 am 10:15 Partly Cloudy 55 13 41 5 59 59 SW 15 24 30.32 1027 10 16 N/A
10:35 am 10:35 Mostly Cloudy 57 14 43 6 59 59 SW 17 28 30.32 1027 10 16 N/A
10:55 am 10:55 Mostly Cloudy 57 14 43 6 59 59 SW 15 24 30.32 1027 10 16 N/A
11:15 am 11:15 Partly Cloudy 59 15 43 6 55 55 SW 15 24 30.31 1027 10 16 N/A
11:35 am 11:35 Partly Cloudy 61 16 45 7 55 55 SSW 16 26 30.31 1026 10 16 N/A
11:55 am 11:55 Mostly Cloudy 61 16 45 7 55 55 WSW 14 22 30.31 1026 10 16 N/A
12:15 pm 12:15 Partly Cloudy 61 16 46 8 59 59 SSW 15 24 30.30 1026 10 16 N/A
12:35 pm 12:35 Sunny 63 17 46 8 56 56 SW 14 22 30.30 1026 10 16 N/A
12:55 pm 12:55 Partly Cloudy 63 17 46 8 56 56 SSW 12 19 30.29 1026 10 16 N/A
1:15 pm 13:15 Mostly Cloudy 63 17 48 9 59 59 SW 14 22 30.29 1026 10 16 N/A
1:35 pm 13:35 Cloudy 64 18 48 9 56 56 SW 14 22 30.28 1026 10 16 N/A
1:55 pm 13:55 Cloudy 63 17 48 9 59 59 WSW 10 17 30.29 1026 10 16 N/A
2:15 pm 14:15 Mostly Cloudy 61 16 48 9 63 63 WSW 12 19 30.29 1026 10 16 N/A
2:35 pm 14:35 Partly Cloudy 64 18 50 10 60 60 WSW 9 15 30.27 1025 10 16 N/A
2:55 pm 14:55 Cloudy 63 17 48 9 59 59 SW 10 17 30.28 1025 10 16 N/A
3:15 pm 15:15 Mostly Cloudy 63 17 50 10 64 64 SW 8 13 30.28 1025 10 16 N/A
3:35 pm 15:35 Cloudy 63 17 50 10 64 64 SW 8 13 30.28 1025 10 16 N/A
3:55 pm 15:55 Cloudy 63 17 50 10 64 64 SSW 9 15 30.29 1026 10 16 N/A
4:15 pm 16:15 Cloudy 63 17 50 10 64 64 SW 7 11 30.30 1026 10 16 N/A
4:35 pm 16:35 Cloudy 61 16 50 10 68 68 SW 7 11 30.31 1026 10 16 N/A
4:55 pm 16:55 Mostly Cloudy 61 16 50 10 68 68 SW 10 17 30.32 1027 10 16 N/A
5:15 pm 17:15 Mostly Cloudy 59 15 48 9 68 68 SW 9 15 30.33 1027 10 16 N/A
5:35 pm 17:35 Cloudy 59 15 48 9 68 68 SW 7 11 30.33 1027 10 16 N/A
5:55 pm 17:55 Partly Cloudy 55 13 48 9 77 77 SW 6 9 30.35 1028 10 16 N/A
6:15 pm 18:15 Mostly Cloudy 55 13 48 9 77 77 N N/A 30.34 1027 10 16 N/A
6:35 pm 18:35 Mostly Cloudy 55 13 48 9 77 77 SSW 3 6 30.35 1028 10 16 N/A
6:55 pm 18:55 Mostly Cloudy 55 13 48 9 77 77 SSW 6 9 30.35 1028 10 16 N/A
7:15 pm 19:15 Cloudy 57 14 50 10 77 77 SSW 7 11 30.36 1028 10 16 N/A
7:35 pm 19:35 Cloudy 57 14 50 10 77 77 SSW 5 7 30.36 1028 10 16 N/A
7:55 pm 19:55 Cloudy 55 13 50 10 82 82 SSW 5 7 30.37 1028 10 16 N/A
8:15 pm 20:15 Cloudy 55 13 50 10 82 82 SSW 5 7 30.36 1028 10 16 N/A
8:35 pm 20:35 Cloudy 55 13 50 10 82 82 SW 5 7 30.37 1028 10 16 N/A
8:55 pm 20:55 Cloudy 55 13 50 10 82 82 N N/A 30.36 1028 10 16 N/A
9:15 pm 21:15 Cloudy 54 12 52 11 94 94 WSW 5 7 30.37 1029 10 16 N/A
9:35 pm 21:35 Cloudy 54 12 52 11 94 94 SSW 3 6 30.37 1029 10 16 N/A
9:55 pm 21:55 Cloudy 54 12 52 11 94 94 N N/A 30.38 1029 10 16 N/A
10:15 pm 22:15 Cloudy 54 12 52 11 94 94 N N/A 30.39 1029 10 16 N/A
10:35 pm 22:35 Cloudy 54 12 52 11 94 94 N N/A 30.39 1029 10 16 N/A
10:55 pm 22:55 Cloudy 54 12 54 12 100 100 N N/A 30.39 1029 10 16 N/A
11:15 pm 23:15 Cloudy 52 11 52 11 100 100 N N/A 30.39 1029 10 16 N/A
11:35 pm 23:35 Cloudy 52 11 52 11 100 100 N 7 11 30.40 1029 10 16 N/A
11:55 pm 23:55 Cloudy 50 10 50 10 100 100 N 8 13 30.42 1030 10 16 N/A

Powered by AerisWeather